Regional Weather Roundup
Issued by NWS Spokane, WA

Home | Current Version | Previous Version | Text Only | Print | Product List | Glossary On
Versions: 1 2 3 4 5 6 7 8 9 10 11 12 13 14 15 16 17 18 19 20 21 22 23 24 25 26 27 28 29 30 31 32 33 34 35 36 37 38 39 40 41 42 43 44 45 46 47 48 49 50
000
NZUS01 KOTX 051610
RWROTX
EASTERN WASHINGTON/NORTHERN IDAHO ROUNDUP
NATIONAL WEATHER SERVICE, SPOKANE WA
900 AM PDT SUN JUL 05 2015

Note: "fair" indicated few or no clouds below 12,000 feet with no
significant weather and/or obstructions to visibility.

...NORTHEAST WASHINGTON AND NORTHERN IDAHO PANHANDLE...

CITY           SKY/WX    TMP DP  RH WIND       PRES   REMARKS
SPOKANE INTL   MOSUNNY   77  48  35 N13G21    29.88R
SPOKANE DOWNTO SUNNY     80  49  33 E15       29.88R
COEUR D ALENE  SUNNY     73  46  38 N22G31    29.90R
DEER PARK      SUNNY     76  47  35 NE20      29.90R
SANDPOINT      SUNNY     70  45  40 NE22G33   29.95S
BONNERS FERRY  FAIR      68  45  42 NE7       30.03R

...SOUTHEAST WASHINGTON AND SOUTHERN IDAHO PANHANDLE...

CITY           SKY/WX    TMP DP  RH WIND       PRES   REMARKS
WALLA WALLA    SUNNY     80  39  23 SW15      29.82R
PULLMAN/MOSCOW MOSUNNY   79  46  31 W8        29.87R
LEWISTON       MOSUNNY   82  49  31 N7        29.79S
LOWELL           N/A     73  55  53 CALM      29.82F

...COLUMBIA BASIN...

CITY           SKY/WX    TMP DP  RH WIND       PRES   REMARKS
EPHRATA        SUNNY     85  37  18 N26       29.84S
MOSES LAKE     SUNNY     85  36  17 N21G30    29.83S
TRI CITIES     SUNNY     82  49  31 N12       29.79R
HERMISTON      SUNNY     85  40  20 W5        29.81R HAZE
PENDLETON      SUNNY     82  33  17 NW10      29.84R

...EAST SLOPES CASCADES...

CITY           SKY/WX    TMP DP  RH WIND       PRES   REMARKS
THE DALLES     MOSUNNY   81  55  40 N5        29.80S
YAKIMA         SUNNY     83  50  31 NW9       29.84S
ELLENSBURG     SUNNY     75  45  34 VRB3      29.88S
WENATCHEE      SUNNY     78  46  32 W13       29.87S
OMAK           SUNNY     80  37  21 N15G24    29.92R

...SOUTHERN BRITISH COLUMBIA...

CITY           SKY/WX    TMP DP  RH WIND       PRES   REMARKS
PENTICTON      SUNNY     79  41  25 N15       29.96S
CASTLEGAR      SUNNY     73  45  35 NE5       29.95S
CRANBROOK      PTSUNNY   66  39  37 E8        30.11R

...WESTERN MONTANA...

CITY           SKY/WX    TMP DP  RH WIND       PRES   REMARKS
MISSOULA       MOSUNNY   71  45  39 E20       30.01F

...NEIGHBORING CITIES...

CITY           SKY/WX    TMP DP  RH WIND       PRES   REMARKS
SEATTLE        MOSUNNY   73  55  53 W6        29.85S
CALGARY        PTSUNNY   55  43  62 N18       30.21S



USA.gov is the U.S. government's official web portal to all federal, state and local government web resources and services.